Time,TemperatureF,DewpointF,PressureIn,WindDirection,WindDirectionDegrees,WindSpeedMPH,WindSpeedGustMPH,Humidity,HourlyPrecipIn,Conditions,Clouds,dailyrainin,SoftwareType,DateUTC
2013-03-27 00:10:00,53.5,45.0,30.01,NE,34,0.0,-999.0,72,-99.99,,,0.00,weatherlink.com 1.10,2013-03-27 07:10:00,
2013-03-27 00:25:00,53.3,44.0,30.01,NE,34,0.0,-999.0,70,-99.99,,,0.00,weatherlink.com 1.10,2013-03-27 07:25:00,
2013-03-27 00:40:00,53.3,43.0,30.01,NE,34,0.0,-999.0,69,-99.99,,,0.00,weatherlink.com 1.10,2013-03-27 07:40:00,
2013-03-27 00:55:00,53.0,43.0,30.01,NE,34,0.0,-999.0,69,-99.99,,,0.00,weatherlink.com 1.10,2013-03-27 07:55:00,
2013-03-27 01:10:00,52.9,43.0,30.00,NE,34,0.0,-999.0,68,-99.99,,,0.00,weatherlink.com 1.10,2013-03-27 08:10:00,
2013-03-27 01:25:00,52.6,42.0,30.00,NE,34,0.0,-999.0,68,-99.99,,,0.00,weatherlink.com 1.10,2013-03-27 08:25:00,
2013-03-27 01:40:00,52.5,43.0,30.00,NE,34,0.0,-999.0,70,-99.99,,,0.00,weatherlink.com 1.10,2013-03-27 08:40:00,
2013-03-27 01:55:00,52.1,43.0,30.00,NE,34,0.0,-999.0,70,-99.99,,,0.00,weatherlink.com 1.10,2013-03-27 08:55:00,
2013-03-27 02:10:00,51.6,43.0,30.00,NE,34,0.0,-999.0,72,-99.99,,,0.00,weatherlink.com 1.10,2013-03-27 09:10:00,
2013-03-27 02:25:00,50.5,43.0,30.00,NE,34,0.0,-999.0,74,-99.99,,,0.00,weatherlink.com 1.10,2013-03-27 09:25:00,
2013-03-27 02:40:00,50.0,42.0,30.00,NE,34,0.0,-999.0,75,-99.99,,,0.00,weatherlink.com 1.10,2013-03-27 09:40:00,
2013-03-27 02:55:00,50.6,43.0,30.00,NE,34,0.0,-999.0,75,-99.99,,,0.00,weatherlink.com 1.10,2013-03-27 09:55:00,
2013-03-27 03:10:00,51.6,43.0,29.99,NE,34,0.0,-999.0,72,-99.99,,,0.00,weatherlink.com 1.10,2013-03-27 10:10:00,
2013-03-27 03:25:00,51.9,43.0,29.99,NE,34,0.0,-999.0,72,-99.99,,,0.00,weatherlink.com 1.10,2013-03-27 10:25:00,
2013-03-27 03:40:00,51.7,43.0,30.00,NE,34,0.0,-999.0,72,-99.99,,,0.00,weatherlink.com 1.10,2013-03-27 10:40:00,
2013-03-27 03:55:00,51.2,43.0,30.00,NE,34,0.0,-999.0,73,-99.99,,,0.00,weatherlink.com 1.10,2013-03-27 10:55:00,
2013-03-27 04:10:00,51.0,43.0,29.99,NE,34,0.0,-999.0,74,-99.99,,,0.00,weatherlink.com 1.10,2013-03-27 11:10:00,
2013-03-27 04:25:00,50.9,44.0,29.99,NE,34,0.0,-999.0,76,-99.99,,,0.00,weatherlink.com 1.10,2013-03-27 11:25:00,
2013-03-27 04:40:00,51.2,44.0,30.00,NE,34,0.0,-999.0,76,-99.99,,,0.00,weatherlink.com 1.10,2013-03-27 11:40:00,
2013-03-27 04:55:00,51.3,44.0,29.99,NE,34,0.0,-999.0,77,-99.99,,,0.00,weatherlink.com 1.10,2013-03-27 11:55:00,
2013-03-27 05:10:00,51.5,45.0,29.99,NE,34,0.0,-999.0,78,-99.99,,,0.00,weatherlink.com 1.10,2013-03-27 12:10:00,
2013-03-27 05:25:00,51.5,45.0,30.00,NE,34,0.0,-999.0,78,-99.99,,,0.00,weatherlink.com 1.10,2013-03-27 12:25:00,
2013-03-27 05:40:00,51.5,45.0,30.00,NE,34,1.0,-999.0,79,-99.99,,,0.00,weatherlink.com 1.10,2013-03-27 12:40:00,
2013-03-27 05:55:00,51.5,45.0,30.00,NE,34,0.0,-999.0,79,-99.99,,,0.00,weatherlink.com 1.10,2013-03-27 12:55:00,
2013-03-27 06:10:00,51.1,45.0,29.99,NE,34,0.0,-999.0,79,-99.99,,,0.00,weatherlink.com 1.10,2013-03-27 13:10:00,
2013-03-27 06:25:00,50.5,44.0,29.99,NE,34,0.0,-999.0,79,-99.99,,,0.00,weatherlink.com 1.10,2013-03-27 13:25:00,
2013-03-27 06:40:00,50.3,45.0,30.00,NE,34,0.0,-999.0,81,-99.99,,,0.00,weatherlink.com 1.10,2013-03-27 13:40:00,
2013-03-27 06:55:00,50.0,44.0,30.00,NE,34,0.0,-999.0,81,-99.99,,,0.00,weatherlink.com 1.10,2013-03-27 13:55:00,
2013-03-27 07:10:00,49.8,45.0,30.00,NE,34,0.0,-999.0,82,-99.99,,,0.00,weatherlink.com 1.10,2013-03-27 14:10:00,
2013-03-27 07:25:00,49.6,45.0,30.00,NE,34,0.0,-999.0,83,-99.99,,,0.00,weatherlink.com 1.10,2013-03-27 14:25:00,
2013-03-27 07:40:00,50.3,46.0,30.01,NE,34,0.0,-999.0,84,-99.99,,,0.00,weatherlink.com 1.10,2013-03-27 14:40:00,
2013-03-27 07:55:00,50.6,46.0,30.01,NE,34,0.0,-999.0,83,-99.99,,,0.00,weatherlink.com 1.10,2013-03-27 14:55:00,
2013-03-27 08:10:00,51.5,47.0,30.02,NE,34,0.0,-999.0,83,-99.99,,,0.00,weatherlink.com 1.10,2013-03-27 15:10:00,
2013-03-27 08:25:00,52.4,47.0,30.02,NE,34,0.0,-999.0,82,-99.99,,,0.00,weatherlink.com 1.10,2013-03-27 15:25:00,
2013-03-27 08:40:00,53.3,47.0,30.02,NE,34,0.0,-999.0,80,-99.99,,,0.00,weatherlink.com 1.10,2013-03-27 15:40:00,
2013-03-27 08:55:00,54.0,47.0,30.02,NE,34,0.0,-999.0,78,-99.99,,,0.00,weatherlink.com 1.10,2013-03-27 15:55:00,
2013-03-27 09:10:00,53.8,47.0,30.03,NE,40,0.0,-999.0,77,-99.99,,,0.00,weatherlink.com 1.10,2013-03-27 16:10:00,
2013-03-27 09:26:00,54.0,47.0,30.03,NE,40,0.0,-999.0,76,-99.99,,,0.00,weatherlink.com 1.10,2013-03-27 16:26:00,
2013-03-27 09:40:00,53.8,47.0,30.03,NE,40,0.0,-999.0,78,-99.99,,,0.00,weatherlink.com 1.10,2013-03-27 16:40:00,
2013-03-27 09:55:00,55.1,48.0,30.03,NE,40,0.0,-999.0,78,-99.99,,,0.00,weatherlink.com 1.10,2013-03-27 16:55:00,
2013-03-27 10:10:00,54.8,47.0,30.04,NE,38,0.0,-999.0,76,-99.99,,,0.00,weatherlink.com 1.10,2013-03-27 17:10:00,
2013-03-27 10:25:00,54.3,47.0,30.04,NNE,33,0.0,-999.0,77,-99.99,,,0.00,weatherlink.com 1.10,2013-03-27 17:25:00,
2013-03-27 10:40:00,55.2,48.0,30.05,NE,34,0.0,-999.0,77,-99.99,,,0.00,weatherlink.com 1.10,2013-03-27 17:40:00,
2013-03-27 10:55:00,54.4,48.0,30.05,NNE,31,0.0,-999.0,78,-99.99,,,0.00,weatherlink.com 1.10,2013-03-27 17:55:00,
2013-03-27 11:10:00,54.0,47.0,30.05,NNE,29,0.0,-999.0,77,-99.99,,,0.00,weatherlink.com 1.10,2013-03-27 18:10:00,
2013-03-27 11:25:00,55.7,48.0,30.05,NNE,29,0.0,-999.0,75,-99.99,,,0.00,weatherlink.com 1.10,2013-03-27 18:25:00,
2013-03-27 11:40:00,57.1,49.0,30.05,NNE,29,0.0,-999.0,74,-99.99,,,0.00,weatherlink.com 1.10,2013-03-27 18:40:00,
2013-03-27 11:55:00,57.8,49.0,30.06,WNW,292,0.0,-999.0,72,-99.99,,,0.00,weatherlink.com 1.10,2013-03-27 18:55:00,
2013-03-27 12:10:00,55.6,47.0,30.06,WNW,283,0.0,-999.0,73,-99.99,,,0.00,weatherlink.com 1.10,2013-03-27 19:10:00,
2013-03-27 12:25:00,56.4,48.0,30.06,West,281,0.0,-999.0,74,-99.99,,,0.00,weatherlink.com 1.10,2013-03-27 19:25:00,
2013-03-27 12:40:00,57.7,49.0,30.06,West,272,0.0,-999.0,73,-99.99,,,0.00,weatherlink.com 1.10,2013-03-27 19:40:00,
2013-03-27 12:55:00,55.5,48.0,30.06,West,271,0.0,-999.0,75,-99.99,,,0.00,weatherlink.com 1.10,2013-03-27 19:55:00,
2013-03-27 13:10:00,53.1,46.0,30.06,West,265,0.0,-999.0,78,-99.99,,,0.00,weatherlink.com 1.10,2013-03-27 20:10:00,
2013-03-27 13:25:00,55.8,49.0,30.06,WSW,258,1.0,-999.0,79,-99.99,,,0.00,weatherlink.com 1.10,2013-03-27 20:25:00,
2013-03-27 13:40:00,55.0,49.0,30.06,WSW,253,0.0,-999.0,79,-99.99,,,0.00,weatherlink.com 1.10,2013-03-27 20:40:00,
2013-03-27 13:55:00,54.7,48.0,30.06,West,259,0.0,-999.0,78,-99.99,,,0.00,weatherlink.com 1.10,2013-03-27 20:55:00,
2013-03-27 14:10:00,55.3,48.0,30.06,West,261,1.0,-999.0,77,-99.99,,,0.00,weatherlink.com 1.10,2013-03-27 21:10:00,
2013-03-27 14:25:00,56.8,50.0,30.06,West,264,1.0,-999.0,77,-99.99,,,0.00,weatherlink.com 1.10,2013-03-27 21:25:00,
2013-03-27 14:40:00,56.6,49.0,30.05,West,271,0.0,-999.0,77,-99.99,,,0.00,weatherlink.com 1.10,2013-03-27 21:40:00,
2013-03-27 14:55:00,55.0,48.0,30.05,West,264,0.0,-999.0,78,-99.99,,,0.00,weatherlink.com 1.10,2013-03-27 21:55:00,
2013-03-27 15:10:00,56.2,50.0,30.05,WSW,258,1.0,-999.0,79,-99.99,,,0.00,weatherlink.com 1.10,2013-03-27 22:10:00,
2013-03-27 15:25:00,56.0,50.0,30.05,SW,235,1.0,-999.0,79,-99.99,,,0.00,weatherlink.com 1.10,2013-03-27 22:25:00,
2013-03-27 15:40:00,55.2,49.0,30.05,West,260,0.0,-999.0,80,-99.99,,,0.00,weatherlink.com 1.10,2013-03-27 22:40:00,
2013-03-27 15:55:00,55.0,49.0,30.06,West,263,0.0,-999.0,79,-99.99,,,0.00,weatherlink.com 1.10,2013-03-27 22:55:00,
2013-03-27 16:10:00,53.9,49.0,30.06,WSW,254,0.0,-999.0,82,-99.99,,,0.00,weatherlink.com 1.10,2013-03-27 23:10:00,
2013-03-27 16:25:00,52.0,48.0,30.06,WSW,254,0.0,-999.0,86,-99.99,,,0.00,weatherlink.com 1.10,2013-03-27 23:25:00,
2013-03-27 16:40:00,51.9,49.0,30.06,WSW,254,0.0,-999.0,88,-99.99,,,0.00,weatherlink.com 1.10,2013-03-27 23:40:00,
2013-03-27 16:56:00,54.4,51.0,30.05,WSW,254,0.0,-999.0,89,-99.99,,,0.00,weatherlink.com 1.10,2013-03-27 23:56:00,
2013-03-27 17:11:00,56.7,51.0,30.05,WSW,245,0.0,-999.0,82,-99.99,,,0.00,weatherlink.com 1.10,2013-03-28 00:11:00,
2013-03-27 17:26:00,54.1,49.0,30.05,WSW,253,0.0,-999.0,84,-99.99,,,0.00,weatherlink.com 1.10,2013-03-28 00:26:00,
2013-03-27 17:41:00,53.5,50.0,30.05,WSW,253,0.0,-999.0,87,-99.99,,,0.00,weatherlink.com 1.10,2013-03-28 00:41:00,
2013-03-27 17:56:00,52.6,49.0,30.06,WSW,253,0.0,-999.0,87,-99.99,,,0.00,weatherlink.com 1.10,2013-03-28 00:56:00,
2013-03-27 18:11:00,52.2,49.0,30.06,WSW,253,0.0,-999.0,88,-99.99,,,0.00,weatherlink.com 1.10,2013-03-28 01:11:00,
2013-03-27 18:26:00,52.4,49.0,30.06,WSW,253,0.0,-999.0,89,-99.99,,,0.00,weatherlink.com 1.10,2013-03-28 01:26:00,
2013-03-27 18:41:00,52.6,50.0,30.06,WSW,253,0.0,-999.0,89,-99.99,,,0.00,weatherlink.com 1.10,2013-03-28 01:41:00,
2013-03-27 18:56:00,52.5,49.0,30.06,WSW,253,0.0,-999.0,88,-99.99,,,0.00,weatherlink.com 1.10,2013-03-28 01:56:00,
2013-03-27 19:11:00,52.3,49.0,30.06,WSW,253,0.0,-999.0,88,-99.99,,,0.00,weatherlink.com 1.10,2013-03-28 02:11:00,
2013-03-27 19:26:00,51.9,49.0,30.05,WSW,253,0.0,-999.0,88,-99.99,,,0.00,weatherlink.com 1.10,2013-03-28 02:26:00,
2013-03-27 19:41:00,51.2,48.0,30.06,WSW,253,0.0,-999.0,89,-99.99,,,0.00,weatherlink.com 1.10,2013-03-28 02:41:00,
2013-03-27 19:56:00,50.8,48.0,30.06,WSW,253,0.0,-999.0,90,-99.99,,,0.00,weatherlink.com 1.10,2013-03-28 02:56:00,
2013-03-27 20:11:00,50.8,48.0,30.06,WNW,288,0.0,-999.0,90,-99.99,,,0.00,weatherlink.com 1.10,2013-03-28 03:11:00,
2013-03-27 20:26:00,51.0,48.0,30.06,WNW,294,0.0,-999.0,90,-99.99,,,0.00,weatherlink.com 1.10,2013-03-28 03:26:00,
2013-03-27 20:41:00,50.9,48.0,30.07,WNW,294,0.0,-999.0,90,-99.99,,,0.00,weatherlink.com 1.10,2013-03-28 03:41:00,
2013-03-27 20:56:00,50.6,48.0,30.07,WNW,294,0.0,-999.0,90,-99.99,,,0.00,weatherlink.com 1.10,2013-03-28 03:56:00,
2013-03-27 21:11:00,50.4,48.0,30.06,WNW,300,0.0,-999.0,91,-99.99,,,0.00,weatherlink.com 1.10,2013-03-28 04:11:00,
2013-03-27 21:26:00,50.5,48.0,30.07,NNW,338,0.0,-999.0,91,-99.99,,,0.00,weatherlink.com 1.10,2013-03-28 04:26:00,
2013-03-27 21:41:00,51.0,48.0,30.07,NNW,338,0.0,-999.0,90,-99.99,,,0.00,weatherlink.com 1.10,2013-03-28 04:41:00,
2013-03-27 21:56:00,50.8,48.0,30.08,NNW,338,0.0,-999.0,90,-99.99,,,0.00,weatherlink.com 1.10,2013-03-28 04:56:00,
2013-03-27 22:11:00,50.7,48.0,30.08,NNW,338,0.0,-999.0,90,-99.99,,,0.00,weatherlink.com 1.10,2013-03-28 05:11:00,
2013-03-27 22:26:00,50.4,48.0,30.09,NNW,338,0.0,-999.0,91,-99.99,,,0.00,weatherlink.com 1.10,2013-03-28 05:26:00,
2013-03-27 22:56:00,50.2,48.0,30.09,NNW,340,0.0,-999.0,91,-99.99,,,0.00,weatherlink.com 1.10,2013-03-28 05:56:00,
2013-03-27 23:11:00,50.1,48.0,30.09,NNW,342,0.0,-999.0,92,-99.99,,,0.00,weatherlink.com 1.10,2013-03-28 06:11:00,
2013-03-27 23:26:00,50.1,48.0,30.09,NNW,341,0.0,-999.0,92,-99.99,,,0.00,weatherlink.com 1.10,2013-03-28 06:26:00,
2013-03-27 23:41:00,50.1,48.0,30.09,NNW,342,0.0,-999.0,92,-99.99,,,0.00,weatherlink.com 1.10,2013-03-28 06:41:00,
2013-03-27 23:56:00,50.1,48.0,30.09,NNW,345,0.0,-999.0,92,-99.99,,,0.00,weatherlink.com 1.10,2013-03-28 06:56:00,